Regional Weather Roundup
Issued by NWS Raleigh/Durham, NC

Current Version | Previous Version | Graphics & Text | Print | Product List | Glossary On
Versions: 1 2 3 4 5 6 7 8 9 10 11 12 13 14 15 16 17 18 19 20 21 22 23 24 25 26 27 28 29 30 31 32 33 34 35 36 37 38 39 40 41 42 43 44 45 46 47 48 49 50
074
ASUS42 KRAH 010610
RWRRAH
NORTH CAROLINA WEATHER ROUNDUP
NATIONAL WEATHER SERVICE RALEIGH NC
200 AM EDT WED JUN 01 2016

NOTE: "FAIR" INDICATES FEW OR NO CLOUDS BELOW 12,000 FEET WITH NO
SIGNIFICANT WEATHER AND/OR OBSTRUCTIONS TO VISIBILITY.

NCZ001-053-055-056-065-067-010700-
WESTERN NORTH CAROLINA

CITY           SKY/WX    TMP DP  RH WIND       PRES   REMARKS
ASHEVILLE      CLOUDY    66  62  87 CALM      30.07F
JEFFERSON      PTCLDY    60  60  99 CALM      30.12S FOG
MORGANTON      FOG       62  62 100 CALM      30.07S VSB 1/2
HICKORY        CLOUDY    67  67 100 CALM      30.02F
RUTHERFORDTON  CLOUDY    66  66 100 N3        30.02S
MOUNT AIRY     NOT AVBL
BOONE          CLEAR     58  58 100 CALM      30.12F
$$

NCZ021-022-025-041-071-084-088-010700-
CENTRAL NORTH CAROLINA

CITY           SKY/WX    TMP DP  RH WIND       PRES   REMARKS
CHARLOTTE      PTCLDY    67  65  93 N3        30.00S
GREENSBORO     PTCLDY    71  67  87 CALM      30.01R
WINSTON-SALEM  CLEAR     70  64  81 E3        30.02S
RALEIGH-DURHAM PTCLDY    68  67  96 CALM      29.98F
FORT BRAGG     CLOUDY    71  69  94 CALM      29.95F
FAYETTEVILLE   PTCLDY    72  69  90 N6        29.95F
BURLINGTON     CLEAR     68  66  93 CALM      30.00S
LAURINBURG     PTCLDY    71  69  93 N6        29.96S
$$

NCZ011-015-027-028-043-044-047-080-103-010700-
NORTHEASTERN NORTH CAROLINA

CITY           SKY/WX    TMP DP  RH WIND       PRES   REMARKS
ROCKY MT-WILSO MOCLDY    70  68  93 NE5       29.97S
GREENVILLE     MOCLDY    68  68 100 CALM      29.99S
WASHINGTON     CLOUDY    67  67  97 CALM      29.96F
ELIZABETH CITY CLEAR     70  68  93 NE6       29.97F
MANTEO         CLOUDY    70  70 100 E7        29.97F
CAPE HATTERAS  CLOUDY    73  72  96 CALM      29.95F
$$

NCZ078-087-090-091-093-098-101-010700-
SOUTHEASTERN NORTH CAROLINA

CITY           SKY/WX    TMP DP  RH WIND       PRES   REMARKS
LUMBERTON      MOCLDY    73  70  90 N5        29.94F
GOLDSBORO      PTCLDY    70  70 100 NE5       29.94F
KINSTON        PTCLDY    70  69  96 NE5       29.96F
KENANSVILLE    CLOUDY    71  70  97 CALM      29.95F
NEW BERN       CLOUDY    72  69  90 NE5       29.95S
CHERRY POINT   PTCLDY    73  71  93 E6        29.94F
BEAUFORT       MOCLDY    73  72  96 E3        29.93F
JACKSONVILLE   CLOUDY    73  71  93 NE8       29.91F
WILMINGTON     LGT RAIN  73  72  96 N8        29.91F
$$





USA.gov is the U.S. government's official web portal to all federal, state and local government web resources and services.